| time (UTC) | temp F | wind direction | speed MPH | gust MPH | rain 1hr in | rain 24hr in | rain mn in | humidity % | barometer mb |
| 20260906082141 | 54 | 107 | 2.0 | 6.0 | 0.00 | 0.00 | 0.00 | 56 | 1017.4 |
| 20260906081637 | 54 | 113 | 0.0 | 5.0 | 0.00 | 0.00 | 0.00 | 55 | 1017.2 |
| 20260906081132 | 54 | 97 | 4.0 | 5.0 | 0.00 | 0.00 | 0.00 | 56 | 1017.2 |
| 20260906080629 | 54 | 97 | 3.0 | 8.0 | 0.00 | 0.00 | 0.00 | 55 | 1017.3 |
| 20260906080125 | 54 | 96 | 3.0 | 7.0 | 0.00 | 0.00 | 0.00 | 55 | 1017.3 |
| 20260906075624 | 54 | 118 | 3.0 | 6.0 | 0.00 | 0.00 | 0.00 | 56 | 1017.3 |
| 20260906075119 | 54 | 79 | 3.0 | 3.0 | 0.00 | 0.00 | 0.00 | 55 | 1017.4 |
| 20260906074614 | 54 | 90 | 2.0 | 3.0 | 0.00 | 0.00 | 0.00 | 54 | 1017.4 |
| 20260906074108 | 55 | 102 | 2.0 | 7.0 | 0.00 | 0.00 | 0.00 | 54 | 1017.4 |
| 20260906073608 | 55 | 41 | 0.0 | 5.0 | 0.00 | 0.00 | 0.00 | 54 | 1017.4 |
| 20260906073103 | 55 | 97 | 4.0 | 6.0 | 0.00 | 0.00 | 0.00 | 53 | 1017.4 |
| 20260906072558 | 56 | 85 | 2.0 | 8.0 | 0.00 | 0.00 | 0.00 | 52 | 1017.6 |
| 20260906072054 | 55 | 74 | 6.0 | 9.0 | 0.00 | 0.00 | 0.00 | 52 | 1017.7 |
| 20260906071551 | 56 | 116 | 5.0 | 8.0 | 0.00 | 0.00 | 0.00 | 52 | 1017.8 |
| 20260906071045 | 55 | 102 | 5.0 | 8.0 | 0.00 | 0.00 | 0.00 | 53 | 1017.7 |
| 20260906070542 | 55 | 88 | 6.0 | 7.0 | 0.00 | 0.00 | 0.00 | 53 | 1017.8 |
| 20260906070037 | 55 | 93 | 4.0 | 6.0 | 0.00 | 0.00 | 0.00 | 53 | 1017.8 |
| 20260906065537 | 55 | 103 | 4.0 | 9.0 | 0.00 | 0.00 | 0.00 | 53 | 1017.9 |
| 20260906065032 | 56 | 84 | 2.0 | 10.0 | 0.00 | 0.00 | 0.00 | 51 | 1017.8 |
| 20260906064528 | 56 | 75 | 3.0 | 12.0 | 0.00 | 0.00 | 0.00 | 51 | 1018.1 |
| 20260906064022 | 56 | 83 | 4.0 | 8.0 | 0.00 | 0.00 | 0.00 | 51 | 1018.2 |
| 20260906063518 | 55 | 42 | 3.0 | 6.0 | 0.00 | 0.00 | 0.00 | 51 | 1018.1 |
| 20260906063014 | 55 | 63 | 4.0 | 8.0 | 0.00 | 0.00 | 0.00 | 52 | 1018.2 |
| 20260906062508 | 55 | 117 | 9.0 | 9.0 | 0.00 | 0.00 | 0.00 | 52 | 1018.3 |
| 20260906061957 | 56 | 80 | 4.0 | 9.0 | 0.00 | 0.00 | 0.00 | 52 | 1017.9 |
| 20260906061454 | 54 | 73 | 5.0 | 8.0 | 0.00 | 0.00 | 0.00 | 54 | 1018.1 |
| 20260906060953 | 54 | 90 | 3.0 | 9.0 | 0.00 | 0.00 | 0.00 | 54 | 1018.3 |
| 20260906060450 | 53 | 92 | 7.0 | 10.0 | 0.00 | 0.00 | 0.00 | 56 | 1018.4 |
| 20260906055946 | 54 | 49 | 5.0 | 8.0 | 0.00 | 0.00 | 0.00 | 55 | 1018.5 |
| 20260906055436 | 55 | 105 | 2.0 | 7.0 | 0.00 | 0.00 | 0.00 | 54 | 1018.5 |
| 20260906054931 | 55 | 111 | 0.0 | 4.0 | 0.00 | 0.00 | 0.00 | 54 | 1018.4 |
| 20260906054426 | 55 | 7 | 1.0 | 7.0 | 0.00 | 0.00 | 0.00 | 54 | 1018.8 |
| 20260906053922 | 55 | 86 | 3.0 | 5.0 | 0.00 | 0.00 | 0.00 | 55 | 1018.8 |
| 20260906053418 | 54 | 54 | 1.0 | 4.0 | 0.00 | 0.00 | 0.00 | 55 | 1018.8 |
| 20260906052913 | 54 | 106 | 1.0 | 3.0 | 0.00 | 0.00 | 0.00 | 55 | 1018.8 |
| 20260906052409 | 55 | 113 | 5.0 | 5.0 | 0.00 | 0.00 | 0.00 | 54 | 1018.9 |
| 20260906051906 | 55 | 26 | 2.0 | 5.0 | 0.00 | 0.00 | 0.00 | 54 | 1019.0 |
| 20260906051406 | 54 | 120 | 0.0 | 4.0 | 0.00 | 0.00 | 0.00 | 56 | 1019.0 |
| 20260906050902 | 54 | 105 | 0.0 | 3.0 | 0.00 | 0.00 | 0.00 | 57 | 1018.8 |
| 20260906050356 | 54 | 20 | 1.0 | 3.0 | 0.00 | 0.00 | 0.00 | 57 | 1019.1 |
| 20260906045855 | 54 | 132 | 0.0 | 5.0 | 0.00 | 0.00 | 0.00 | 57 | 1019.0 |
| 20260906045355 | 54 | 105 | 3.0 | 3.0 | 0.00 | 0.00 | 0.00 | 57 | 1019.0 |
| 20260906044851 | 54 | 96 | 3.0 | 5.0 | 0.00 | 0.00 | 0.00 | 57 | 1019.0 |
| 20260906044351 | 54 | 100 | 4.0 | 4.0 | 0.00 | 0.00 | 0.00 | 59 | 1019.0 |
| 20260906043847 | 54 | 99 | 6.0 | 6.0 | 0.00 | 0.00 | 0.00 | 59 | 1019.1 |
| 20260906043343 | 54 | 0 | 0.0 | 5.0 | 0.00 | 0.00 | 0.00 | 59 | 1019.1 |
| 20260906042838 | 54 | 57 | 3.0 | 5.0 | 0.00 | 0.00 | 0.00 | 60 | 1019.3 |
| 20260906042337 | 54 | 90 | 0.0 | 5.0 | 0.00 | 0.00 | 0.00 | 61 | 1019.1 |
| 20260906041833 | 55 | 74 | 3.0 | 5.0 | 0.00 | 0.00 | 0.00 | 61 | 1019.0 |
| 20260906041328 | 54 | 90 | 0.0 | 6.0 | 0.00 | 0.00 | 0.00 | 62 | 1019.1 |
| 20260906040828 | 54 | 96 | 4.0 | 6.0 | 0.00 | 0.00 | 0.00 | 62 | 1019.3 |
| 20260906040329 | 54 | 63 | 4.0 | 5.0 | 0.00 | 0.00 | 0.00 | 63 | 1019.1 |
| 20260906035824 | 54 | 98 | 2.0 | 5.0 | 0.00 | 0.00 | 0.00 | 63 | 1019.4 |
| 20260906035319 | 54 | 99 | 2.0 | 4.0 | 0.00 | 0.00 | 0.00 | 64 | 1019.3 |
| 20260906034815 | 54 | 90 | 7.0 | 8.0 | 0.00 | 0.00 | 0.00 | 64 | 1019.1 |
| 20260906034314 | 55 | 41 | 0.0 | 5.0 | 0.00 | 0.00 | 0.00 | 64 | 1019.1 |
| 20260906033811 | 55 | 23 | 3.0 | 4.0 | 0.00 | 0.00 | 0.00 | 63 | 1019.1 |
| 20260906033309 | 56 | 30 | 2.0 | 7.0 | 0.00 | 0.00 | 0.00 | 64 | 1019.0 |
| 20260906032806 | 56 | 80 | 3.0 | 10.0 | 0.00 | 0.00 | 0.00 | 63 | 1019.1 |
| 20260906032305 | 56 | 72 | 5.0 | 10.0 | 0.00 | 0.00 | 0.00 | 65 | 1019.1 |
| 20260906031757 | 55 | 49 | 2.0 | 7.0 | 0.00 | 0.00 | 0.00 | 66 | 1019.0 |
| 20260906031253 | 56 | 103 | 2.0 | 5.0 | 0.00 | 0.00 | 0.00 | 65 | 1018.9 |
| 20260906030752 | 57 | 5 | 2.0 | 4.0 | 0.00 | 0.00 | 0.00 | 64 | 1018.9 |
| 20260906030248 | 57 | 66 | 1.0 | 3.0 | 0.00 | 0.00 | 0.00 | 64 | 1018.8 |
| 20260906025747 | 57 | 90 | 3.0 | 6.0 | 0.00 | 0.00 | 0.00 | 64 | 1018.8 |
| 20260906025241 | 58 | 98 | 6.0 | 8.0 | 0.00 | 0.00 | 0.00 | 64 | 1018.8 |
| 20260906024740 | 57 | 73 | 0.0 | 9.0 | 0.00 | 0.00 | 0.00 | 64 | 1018.8 |
| 20260906024239 | 57 | 180 | 1.0 | 4.0 | 0.00 | 0.00 | 0.00 | 66 | 1018.5 |
| 20260906023735 | 57 | 94 | 0.0 | 2.0 | 0.00 | 0.00 | 0.00 | 66 | 1018.5 |
| 20260906023230 | 57 | 352 | 0.0 | 2.0 | 0.00 | 0.00 | 0.00 | 66 | 1018.4 |
| 20260906022726 | 58 | 82 | 2.0 | 6.0 | 0.00 | 0.00 | 0.00 | 66 | 1018.4 |
| 20260906022221 | 58 | 67 | 2.0 | 5.0 | 0.00 | 0.00 | 0.00 | 66 | 1018.4 |
| 20260906021717 | 58 | 90 | 3.0 | 5.0 | 0.00 | 0.00 | 0.00 | 66 | 1018.5 |
| 20260906021215 | 58 | 353 | 0.0 | 1.0 | 0.00 | 0.00 | 0.00 | 65 | 1018.5 |
| 20260906020711 | 59 | 0 | 1.0 | 2.0 | 0.00 | 0.00 | 0.00 | 66 | 1018.5 |
| 20260906020205 | 58 | 90 | 0.0 | 2.0 | 0.00 | 0.00 | 0.00 | 67 | 1018.3 |
| 20260906015700 | 60 | 90 | 3.0 | 4.0 | 0.00 | 0.00 | 0.00 | 66 | 1018.4 |
| 20260906015158 | 62 | 0 | 0.0 | 0.0 | 0.00 | 0.00 | 0.00 | 59 | 1018.4 |
| 20260906014652 | 64 | 349 | 2.0 | 2.0 | 0.00 | 0.00 | 0.00 | 56 | 1018.2 |
| 20260906014148 | 65 | 90 | 0.0 | 0.0 | 0.00 | 0.00 | 0.00 | 56 | 1018.4 |
| 20260906013644 | 66 | 98 | 0.0 | 3.0 | 0.00 | 0.00 | 0.00 | 53 | 1018.5 |
| 20260906013139 | 67 | 246 | 0.0 | 2.0 | 0.00 | 0.00 | 0.00 | 49 | 1018.7 |
| 20260906012639 | 68 | 278 | 0.0 | 1.0 | 0.00 | 0.00 | 0.00 | 47 | 1018.4 |
| 20260906012134 | 70 | 270 | 2.0 | 3.0 | 0.00 | 0.00 | 0.00 | 46 | 1018.5 |
| 20260906011630 | 71 | 253 | 0.0 | 2.0 | 0.00 | 0.00 | 0.00 | 45 | 1018.5 |
| 20260906011124 | 73 | 301 | 2.0 | 4.0 | 0.00 | 0.00 | 0.00 | 43 | 1018.5 |
| 20260906010619 | 73 | 246 | 0.0 | 2.0 | 0.00 | 0.00 | 0.00 | 43 | 1018.4 |
| 20260906010116 | 73 | 303 | 3.0 | 4.0 | 0.00 | 0.00 | 0.00 | 43 | 1018.4 |
| 20260906005609 | 73 | 276 | 2.0 | 4.0 | 0.00 | 0.00 | 0.00 | 43 | 1018.4 |
| 20260906005109 | 73 | 270 | 0.0 | 5.0 | 0.00 | 0.00 | 0.00 | 43 | 1018.3 |
| 20260906004608 | 74 | 250 | 2.0 | 3.0 | 0.00 | 0.00 | 0.00 | 41 | 1018.3 |
| 20260906004103 | 74 | 264 | 0.0 | 3.0 | 0.00 | 0.00 | 0.00 | 41 | 1018.3 |
| 20260906003558 | 74 | 327 | 2.0 | 6.0 | 0.00 | 0.00 | 0.00 | 42 | 1018.4 |
| 20260906003054 | 74 | 255 | 0.0 | 6.0 | 0.00 | 0.00 | 0.00 | 42 | 1018.2 |
| 20260906002549 | 75 | 342 | 0.0 | 6.0 | 0.00 | 0.00 | 0.00 | 42 | 1018.2 |
| 20260906002043 | 75 | 270 | 2.0 | 5.0 | 0.00 | 0.00 | 0.00 | 40 | 1018.3 |
| 20260906001538 | 75 | 0 | 2.0 | 4.0 | 0.00 | 0.00 | 0.00 | 41 | 1017.9 |
| 20260906001032 | 75 | 275 | 2.0 | 5.0 | 0.00 | 0.00 | 0.00 | 40 | 1018.1 |
| 20260906000529 | 75 | 268 | 4.0 | 7.0 | 0.00 | 0.00 | 0.00 | 39 | 1018.2 |
| 20260906000024 | 75 | 276 | 1.0 | 8.0 | 0.00 | 0.00 | 0.00 | 41 | 1018.1 |
| 20260905235517 | 76 | 240 | 3.0 | 5.0 | 0.00 | 0.00 | 0.00 | 41 | 1018.2 |
| 20260905235013 | 76 | 336 | 2.0 | 8.0 | 0.00 | 0.00 | 0.00 | 42 | 1018.2 |
| 20260905234509 | 75 | 258 | 2.0 | 9.0 | 0.00 | 0.00 | 0.00 | 38 | 1017.9 |
| 20260905234003 | 77 | 263 | 4.0 | 5.0 | 0.00 | 0.00 | 0.00 | 39 | 1017.9 |
| 20260905233458 | 77 | 270 | 1.0 | 4.0 | 0.00 | 0.00 | 0.00 | 38 | 1018.1 |
| 20260905232956 | 76 | 351 | 2.0 | 6.0 | 0.00 | 0.00 | 0.00 | 41 | 1017.9 |
| 20260905232453 | 76 | 8 | 4.0 | 6.0 | 0.00 | 0.00 | 0.00 | 39 | 1017.9 |
| 20260905231948 | 76 | 284 | 3.0 | 7.0 | 0.00 | 0.00 | 0.00 | 41 | 1018.1 |
| 20260905231443 | 75 | 262 | 5.0 | 5.0 | 0.00 | 0.00 | 0.00 | 42 | 1018.1 |
| 20260905230935 | 76 | 4 | 4.0 | 9.0 | 0.00 | 0.00 | 0.00 | 41 | 1017.8 |
| 20260905230432 | 75 | 322 | 2.0 | 6.0 | 0.00 | 0.00 | 0.00 | 43 | 1017.9 |
| 20260905225931 | 75 | 319 | 0.0 | 5.0 | 0.00 | 0.00 | 0.00 | 41 | 1017.8 |
| 20260905225426 | 79 | 270 | 0.0 | 8.0 | 0.00 | 0.00 | 0.00 | 37 | 1017.9 |
| 20260905224921 | 78 | 239 | 4.0 | 7.0 | 0.00 | 0.00 | 0.00 | 36 | 1017.7 |
| 20260905224417 | 76 | 232 | 3.0 | 9.0 | 0.00 | 0.00 | 0.00 | 37 | 1018.1 |
| 20260905223911 | 78 | 296 | 7.0 | 11.0 | 0.00 | 0.00 | 0.00 | 37 | 1017.7 |
| 20260905223409 | 77 | 342 | 2.0 | 4.0 | 0.00 | 0.00 | 0.00 | 36 | 1017.7 |
| 20260905222908 | 78 | 289 | 3.0 | 6.0 | 0.00 | 0.00 | 0.00 | 37 | 1017.8 |
| 20260905222408 | 77 | 280 | 0.0 | 8.0 | 0.00 | 0.00 | 0.00 | 37 | 1017.8 |
| 20260905221904 | 79 | 226 | 4.0 | 10.0 | 0.00 | 0.00 | 0.00 | 36 | 1017.8 |
| 20260905221400 | 79 | 214 | 5.0 | 11.0 | 0.00 | 0.00 | 0.00 | 31 | 1017.9 |
| 20260905220856 | 78 | 301 | 2.0 | 11.0 | 0.00 | 0.00 | 0.00 | 32 | 1017.9 |
| 20260905220352 | 78 | 263 | 3.0 | 6.0 | 0.00 | 0.00 | 0.00 | 31 | 1017.9 |
| 20260905215851 | 78 | 205 | 9.0 | 9.0 | 0.00 | 0.00 | 0.00 | 31 | 1018.1 |
| 20260905215347 | 77 | 196 | 4.0 | 12.0 | 0.00 | 0.00 | 0.00 | 33 | 1018.2 |
| 20260905214843 | 76 | 243 | 5.0 | 14.0 | 0.00 | 0.00 | 0.00 | 31 | 1018.2 |
| 20260905214338 | 78 | 215 | 8.0 | 13.0 | 0.00 | 0.00 | 0.00 | 33 | 1018.3 |
| 20260905213833 | 78 | 217 | 3.0 | 17.0 | 0.00 | 0.00 | 0.00 | 32 | 1018.3 |
| 20260905213329 | 79 | 199 | 10.0 | 11.0 | 0.00 | 0.00 | 0.00 | 33 | 1018.1 |
| 20260905212819 | 77 | 220 | 5.0 | 12.0 | 0.00 | 0.00 | 0.00 | 33 | 1017.9 |
| 20260905212318 | 79 | 275 | 7.0 | 11.0 | 0.00 | 0.00 | 0.00 | 34 | 1018.1 |
| 20260905211813 | 77 | 141 | 5.0 | 12.0 | 0.00 | 0.00 | 0.00 | 33 | 1018.1 |
| 20260905211307 | 78 | 188 | 3.0 | 15.0 | 0.00 | 0.00 | 0.00 | 36 | 1018.3 |
| 20260905210804 | 76 | 268 | 6.0 | 12.0 | 0.00 | 0.00 | 0.00 | 34 | 1018.3 |
| 20260905210304 | 77 | 209 | 5.0 | 17.0 | 0.00 | 0.00 | 0.00 | 33 | 1018.2 |
| 20260905205802 | 77 | 245 | 8.0 | 13.0 | 0.00 | 0.00 | 0.00 | 33 | 1018.4 |
| 20260905205257 | 77 | 211 | 3.0 | 12.0 | 0.00 | 0.00 | 0.00 | 33 | 1018.4 |
| 20260905204756 | 77 | 200 | 4.0 | 11.0 | 0.00 | 0.00 | 0.00 | 34 | 1018.4 |
| 20260905204253 | 78 | 236 | 6.0 | 8.0 | 0.00 | 0.00 | 0.00 | 34 | 1018.5 |
| 20260905203752 | 78 | 233 | 4.0 | 6.0 | 0.00 | 0.00 | 0.00 | 34 | 1018.4 |
| 20260905203247 | 77 | 212 | 7.0 | 11.0 | 0.00 | 0.00 | 0.00 | 34 | 1018.4 |
| 20260905202743 | 78 | 159 | 3.0 | 10.0 | 0.00 | 0.00 | 0.00 | 34 | 1018.5 |
| 20260905202238 | 77 | 163 | 5.0 | 11.0 | 0.00 | 0.00 | 0.00 | 34 | 1018.5 |
| 20260905201733 | 76 | 249 | 8.0 | 13.0 | 0.00 | 0.00 | 0.00 | 34 | 1018.7 |
| 20260905201228 | 78 | 187 | 4.0 | 12.0 | 0.00 | 0.00 | 0.00 | 36 | 1018.5 |
| 20260905200723 | 77 | 213 | 5.0 | 9.0 | 0.00 | 0.00 | 0.00 | 35 | 1018.7 |
| 20260905200219 | 76 | 221 | 6.0 | 14.0 | 0.00 | 0.00 | 0.00 | 36 | 1018.8 |
| 20260905195717 | 76 | 219 | 5.0 | 9.0 | 0.00 | 0.00 | 0.00 | 36 | 1018.8 |
| 20260905195213 | 76 | 236 | 4.0 | 10.0 | 0.00 | 0.00 | 0.00 | 36 | 1018.5 |
| 20260905194708 | 75 | 225 | 7.0 | 17.0 | 0.00 | 0.00 | 0.00 | 37 | 1018.8 |
| 20260905194207 | 76 | 258 | 3.0 | 9.0 | 0.00 | 0.00 | 0.00 | 36 | 1018.8 |
| 20260905193701 | 75 | 203 | 9.0 | 14.0 | 0.00 | 0.00 | 0.00 | 36 | 1018.8 |
| 20260905193156 | 75 | 236 | 12.0 | 12.0 | 0.00 | 0.00 | 0.00 | 36 | 1018.8 |
| 20260905192652 | 74 | 249 | 6.0 | 9.0 | 0.00 | 0.00 | 0.00 | 36 | 1018.8 |
| 20260905192149 | 75 | 180 | 4.0 | 12.0 | 0.00 | 0.00 | 0.00 | 36 | 1018.8 |
| 20260905191648 | 75 | 206 | 7.0 | 16.0 | 0.00 | 0.00 | 0.00 | 36 | 1018.8 |
| 20260905191146 | 75 | 193 | 3.0 | 9.0 | 0.00 | 0.00 | 0.00 | 38 | 1018.9 |
| 20260905190644 | 73 | 213 | 5.0 | 11.0 | 0.00 | 0.00 | 0.00 | 38 | 1018.8 |
| 20260905190138 | 74 | 156 | 18.0 | 18.0 | 0.00 | 0.00 | 0.00 | 37 | 1018.9 |
| 20260905185638 | 74 | 207 | 13.0 | 20.0 | 0.00 | 0.00 | 0.00 | 36 | 1019.0 |
| 20260905185138 | 73 | 203 | 17.0 | 21.0 | 0.00 | 0.00 | 0.00 | 38 | 1019.0 |
| 20260905184632 | 74 | 218 | 7.0 | 11.0 | 0.00 | 0.00 | 0.00 | 38 | 1019.0 |
| 20260905184131 | 71 | 201 | 6.0 | 13.0 | 0.00 | 0.00 | 0.00 | 41 | 1019.1 |
| 20260905183630 | 73 | 196 | 5.0 | 15.0 | 0.00 | 0.00 | 0.00 | 40 | 1019.0 |
| 20260905183126 | 73 | 216 | 5.0 | 14.0 | 0.00 | 0.00 | 0.00 | 40 | 1019.1 |
| 20260905182620 | 73 | 303 | 2.0 | 6.0 | 0.00 | 0.00 | 0.00 | 44 | 1019.3 |
| 20260905182119 | 73 | 253 | 2.0 | 5.0 | 0.00 | 0.00 | 0.00 | 44 | 1019.4 |
| 20260905181614 | 73 | 156 | 0.0 | 5.0 | 0.00 | 0.00 | 0.00 | 43 | 1019.4 |
| 20260905181113 | 71 | 199 | 0.0 | 6.0 | 0.00 | 0.00 | 0.00 | 45 | 1019.3 |
| 20260905180609 | 70 | 273 | 3.0 | 5.0 | 0.00 | 0.00 | 0.00 | 51 | 1019.4 |
| 20260905180104 | 71 | 234 | 1.0 | 5.0 | 0.00 | 0.00 | 0.00 | 50 | 1019.5 |
| 20260905175603 | 71 | 200 | 3.0 | 4.0 | 0.00 | 0.00 | 0.00 | 51 | 1019.5 |
| 20260905175058 | 70 | 90 | 0.0 | 3.0 | 0.00 | 0.00 | 0.00 | 52 | 1019.5 |
| 20260905174554 | 70 | 334 | 1.0 | 3.0 | 0.00 | 0.00 | 0.00 | 53 | 1019.6 |
| 20260905174049 | 69 | 319 | 0.0 | 3.0 | 0.00 | 0.00 | 0.00 | 54 | 1019.5 |
| 20260905173546 | 71 | 273 | 3.0 | 5.0 | 0.00 | 0.00 | 0.00 | 55 | 1019.4 |
| 20260905173041 | 72 | 105 | 4.0 | 4.0 | 0.00 | 0.00 | 0.00 | 50 | 1019.6 |
| 20260905172539 | 71 | 162 | 2.0 | 3.0 | 0.00 | 0.00 | 0.00 | 51 | 1019.4 |
| 20260905172035 | 70 | 228 | 5.0 | 5.0 | 0.00 | 0.00 | 0.00 | 50 | 1019.5 |
| 20260905171531 | 69 | 170 | 3.0 | 4.0 | 0.00 | 0.00 | 0.00 | 51 | 1019.5 |
| 20260905171027 | 68 | 180 | 2.0 | 5.0 | 0.00 | 0.00 | 0.00 | 52 | 1019.5 |
| 20260905170523 | 69 | 227 | 3.0 | 5.0 | 0.00 | 0.00 | 0.00 | 55 | 1019.3 |
| 20260905170018 | 66 | 246 | 3.0 | 3.0 | 0.00 | 0.00 | 0.00 | 57 | 1019.4 |
| 20260905165513 | 66 | 238 | 3.0 | 5.0 | 0.00 | 0.00 | 0.00 | 59 | 1019.5 |
| 20260905165008 | 67 | 161 | 6.0 | 6.0 | 0.00 | 0.00 | 0.00 | 58 | 1019.5 |
| 20260905164502 | 65 | 185 | 0.0 | 6.0 | 0.00 | 0.00 | 0.00 | 60 | 1019.4 |
| 20260905163956 | 64 | 270 | 1.0 | 4.0 | 0.00 | 0.00 | 0.00 | 61 | 1019.4 |
| 20260905163453 | 65 | 277 | 3.0 | 5.0 | 0.00 | 0.00 | 0.00 | 60 | 1019.3 |
| 20260905162949 | 65 | 206 | 2.0 | 4.0 | 0.00 | 0.00 | 0.00 | 60 | 1019.3 |
| 20260905162444 | 65 | 225 | 2.0 | 3.0 | 0.00 | 0.00 | 0.00 | 60 | 1019.3 |
| 20260905161939 | 64 | 217 | 3.0 | 5.0 | 0.00 | 0.00 | 0.00 | 63 | 1019.1 |
| 20260905161438 | 64 | 237 | 2.0 | 3.0 | 0.00 | 0.00 | 0.00 | 61 | 1019.1 |
| 20260905160936 | 63 | 135 | 5.0 | 5.0 | 0.00 | 0.00 | 0.00 | 64 | 1019.1 |
| 20260905160430 | 63 | 177 | 2.0 | 4.0 | 0.00 | 0.00 | 0.00 | 64 | 1019.0 |
| 20260905155930 | 62 | 195 | 1.0 | 4.0 | 0.00 | 0.00 | 0.00 | 66 | 1019.0 |
| 20260905155425 | 60 | 353 | 0.0 | 3.0 | 0.00 | 0.00 | 0.00 | 66 | 1019.1 |
| 20260905154923 | 61 | 150 | 2.0 | 3.0 | 0.00 | 0.00 | 0.00 | 67 | 1019.0 |
| 20260905154419 | 59 | 173 | 0.0 | 3.0 | 0.00 | 0.00 | 0.00 | 66 | 1019.1 |
| 20260905153915 | 59 | 172 | 0.0 | 4.0 | 0.00 | 0.00 | 0.00 | 70 | 1019.1 |
| 20260905153411 | 58 | 162 | 1.0 | 3.0 | 0.00 | 0.00 | 0.00 | 70 | 1019.3 |
| 20260905152910 | 58 | 352 | 0.0 | 3.0 | 0.00 | 0.00 | 0.00 | 72 | 1019.3 |
| 20260905152409 | 57 | 206 | 2.0 | 4.0 | 0.00 | 0.00 | 0.00 | 72 | 1019.3 |
| 20260905151905 | 56 | 237 | 2.0 | 3.0 | 0.00 | 0.00 | 0.00 | 74 | 1019.4 |
| 20260905151400 | 55 | 206 | 1.0 | 3.0 | 0.00 | 0.00 | 0.00 | 75 | 1019.3 |
| 20260905150854 | 55 | 121 | 4.0 | 4.0 | 0.00 | 0.00 | 0.00 | 74 | 1019.4 |
| 20260905150349 | 56 | 145 | 1.0 | 3.0 | 0.00 | 0.00 | 0.00 | 74 | 1019.3 |
| 20260905145846 | 55 | 128 | 2.0 | 3.0 | 0.00 | 0.00 | 0.00 | 76 | 1019.1 |
| 20260905145340 | 53 | 121 | 2.0 | 5.0 | 0.00 | 0.00 | 0.00 | 75 | 1019.4 |
| 20260905144839 | 53 | 220 | 3.0 | 4.0 | 0.00 | 0.00 | 0.00 | 77 | 1019.4 |
| 20260905144335 | 52 | 156 | 2.0 | 6.0 | 0.00 | 0.00 | 0.00 | 79 | 1019.4 |
| 20260905143833 | 51 | 177 | 3.0 | 6.0 | 0.00 | 0.00 | 0.00 | 81 | 1019.1 |
| 20260905143328 | 50 | 164 | 4.0 | 7.0 | 0.00 | 0.00 | 0.00 | 83 | 1019.1 |
| 20260905142828 | 50 | 159 | 5.0 | 7.0 | 0.00 | 0.00 | 0.00 | 83 | 1019.1 |
| 20260905142321 | 49 | 141 | 5.0 | 7.0 | 0.00 | 0.00 | 0.00 | 83 | 1019.1 |
| 20260905141817 | 49 | 164 | 3.0 | 5.0 | 0.00 | 0.00 | 0.00 | 83 | 1018.9 |
| 20260905141313 | 50 | 152 | 5.0 | 6.0 | 0.00 | 0.00 | 0.00 | 83 | 1018.9 |
| 20260905140808 | 49 | 138 | 3.0 | 5.0 | 0.00 | 0.00 | 0.00 | 84 | 1019.0 |
| 20260905140302 | 48 | 157 | 1.0 | 4.0 | 0.00 | 0.00 | 0.00 | 87 | 1018.9 |
| 20260905135801 | 47 | 135 | 3.0 | 5.0 | 0.00 | 0.00 | 0.00 | 89 | 1018.8 |
| 20260905135258 | 45 | 124 | 5.0 | 5.0 | 0.00 | 0.00 | 0.00 | 92 | 1018.9 |
| 20260905134757 | 44 | 124 | 2.0 | 6.0 | 0.00 | 0.00 | 0.00 | 94 | 1018.9 |
| 20260905134250 | 43 | 149 | 2.0 | 5.0 | 0.00 | 0.00 | 0.00 | 95 | 1018.9 |
| 20260905133745 | 43 | 148 | 5.0 | 7.0 | 0.00 | 0.00 | 0.00 | 94 | 1018.8 |
| 20260905133241 | 42 | 157 | 3.0 | 4.0 | 0.00 | 0.00 | 0.00 | 94 | 1018.9 |
| 20260905132740 | 42 | 237 | 1.0 | 5.0 | 0.00 | 0.00 | 0.00 | 93 | 1018.4 |
| 20260905132236 | 42 | 152 | 0.0 | 4.0 | 0.00 | 0.00 | 0.00 | 91 | 1018.4 |
| 20260905131730 | 42 | 201 | 2.0 | 5.0 | 0.00 | 0.00 | 0.00 | 90 | 1018.2 |
| 20260905131225 | 43 | 139 | 4.0 | 6.0 | 0.00 | 0.00 | 0.00 | 88 | 1018.3 |
| 20260905130720 | 43 | 168 | 3.0 | 5.0 | 0.00 | 0.00 | 0.00 | 87 | 1018.1 |
| 20260905130219 | 44 | 144 | 4.0 | 5.0 | 0.00 | 0.00 | 0.00 | 85 | 1017.9 |
| 20260905125715 | 45 | 133 | 3.0 | 6.0 | 0.00 | 0.00 | 0.00 | 83 | 1017.8 |
| 20260905125210 | 46 | 135 | 5.0 | 5.0 | 0.00 | 0.00 | 0.00 | 81 | 1017.9 |
| 20260905124706 | 48 | 127 | 4.0 | 6.0 | 0.00 | 0.00 | 0.00 | 77 | 1017.8 |
| 20260905124202 | 49 | 94 | 3.0 | 4.0 | 0.00 | 0.00 | 0.00 | 75 | 1017.6 |
| 20260905123656 | 48 | 65 | 2.0 | 2.0 | 0.00 | 0.00 | 0.00 | 76 | 1017.4 |
| 20260905123154 | 48 | 123 | 3.0 | 5.0 | 0.00 | 0.00 | 0.00 | 76 | 1017.4 |
| 20260905122653 | 51 | 98 | 2.0 | 4.0 | 0.00 | 0.00 | 0.00 | 72 | 1017.3 |
| 20260905122148 | 51 | 103 | 1.0 | 2.0 | 0.00 | 0.00 | 0.00 | 70 | 1017.2 |
| 20260905121648 | 51 | 75 | 1.0 | 4.0 | 0.00 | 0.00 | 0.00 | 68 | 1017.2 |
| 20260905121143 | 52 | 90 | 0.0 | 2.0 | 0.00 | 0.00 | 0.00 | 67 | 1017.1 |
| 20260905120643 | 52 | 96 | 1.0 | 4.0 | 0.00 | 0.00 | 0.00 | 68 | 1017.3 |
| 20260905120137 | 52 | 81 | 2.0 | 3.0 | 0.00 | 0.00 | 0.00 | 67 | 1017.0 |
| 20260905115632 | 53 | 94 | 2.0 | 3.0 | 0.00 | 0.00 | 0.00 | 64 | 1017.2 |
| 20260905115127 | 55 | 116 | 3.0 | 4.0 | 0.00 | 0.00 | 0.00 | 60 | 1017.1 |
| 20260905114626 | 55 | 23 | 0.0 | 2.0 | 0.00 | 0.00 | 0.00 | 58 | 1017.1 |
| 20260905114125 | 57 | 145 | 0.0 | 1.0 | 0.00 | 0.00 | 0.00 | 57 | 1017.1 |
| 20260905113620 | 59 | 16 | 2.0 | 2.0 | 0.00 | 0.00 | 0.00 | 54 | 1017.0 |
| 20260905113115 | 60 | 262 | 0.0 | 2.0 | 0.00 | 0.00 | 0.00 | 51 | 1017.0 |
| 20260905112609 | 60 | 254 | 0.0 | 2.0 | 0.00 | 0.00 | 0.00 | 50 | 1017.0 |
| 20260905112106 | 61 | 180 | 0.0 | 2.0 | 0.00 | 0.00 | 0.00 | 50 | 1017.2 |
| 20260905111600 | 61 | 206 | 2.0 | 3.0 | 0.00 | 0.00 | 0.00 | 49 | 1017.0 |
| 20260905111059 | 64 | 254 | 2.0 | 7.0 | 0.00 | 0.00 | 0.00 | 47 | 1017.0 |
| 20260905110558 | 65 | 151 | 3.0 | 6.0 | 0.00 | 0.00 | 0.00 | 45 | 1016.7 |
| 20260905110054 | 64 | 154 | 4.0 | 10.0 | 0.00 | 0.00 | 0.00 | 45 | 1016.7 |
| 20260905105554 | 63 | 138 | 3.0 | 6.0 | 0.00 | 0.00 | 0.00 | 46 | 1016.7 |
| 20260905105053 | 63 | 144 | 3.0 | 5.0 | 0.00 | 0.00 | 0.00 | 47 | 1016.5 |
| 20260905104549 | 63 | 135 | 3.0 | 5.0 | 0.00 | 0.00 | 0.00 | 46 | 1016.6 |
| 20260905104048 | 64 | 165 | 0.0 | 4.0 | 0.00 | 0.00 | 0.00 | 46 | 1016.5 |
| 20260905103544 | 64 | 126 | 1.0 | 3.0 | 0.00 | 0.00 | 0.00 | 46 | 1016.5 |
| 20260905103040 | 64 | 143 | 8.0 | 11.0 | 0.00 | 0.00 | 0.00 | 45 | 1016.6 |
| 20260905102530 | 63 | 157 | 0.0 | 1.0 | 0.00 | 0.00 | 0.00 | 47 | 1016.5 |
| 20260905102027 | 64 | 117 | 0.0 | 3.0 | 0.00 | 0.00 | 0.00 | 46 | 1016.6 |
| 20260905101525 | 64 | 205 | 3.0 | 12.0 | 0.00 | 0.00 | 0.00 | 45 | 1016.5 |
| 20260905101023 | 64 | 154 | 0.0 | 4.0 | 0.00 | 0.00 | 0.00 | 46 | 1016.5 |
| 20260905100520 | 64 | 160 | 1.0 | 5.0 | 0.00 | 0.00 | 0.00 | 45 | 1016.4 |
| 20260905100020 | 65 | 84 | 3.0 | 9.0 | 0.00 | 0.00 | 0.00 | 45 | 1016.5 |
| 20260905095514 | 63 | 254 | 0.0 | 2.0 | 0.00 | 0.00 | 0.00 | 47 | 1016.5 |
| 20260905095010 | 64 | 139 | 2.0 | 5.0 | 0.00 | 0.00 | 0.00 | 46 | 1016.2 |
| 20260905094504 | 63 | 146 | 3.0 | 5.0 | 0.00 | 0.00 | 0.00 | 46 | 1016.0 |
| 20260905094004 | 62 | 101 | 2.0 | 3.0 | 0.00 | 0.00 | 0.00 | 49 | 1016.4 |
| 20260905093458 | 62 | 108 | 4.0 | 7.0 | 0.00 | 0.00 | 0.00 | 48 | 1016.0 |
| 20260905092955 | 59 | 36 | 2.0 | 4.0 | 0.00 | 0.00 | 0.00 | 54 | 1016.1 |
| 20260905092449 | 59 | 102 | 2.0 | 2.0 | 0.00 | 0.00 | 0.00 | 53 | 1016.2 |
| 20260905091945 | 59 | 95 | 2.0 | 3.0 | 0.00 | 0.00 | 0.00 | 54 | 1016.1 |
| 20260905091439 | 58 | 187 | 0.0 | 0.0 | 0.00 | 0.00 | 0.00 | 54 | 1016.0 |
| 20260905090939 | 57 | 60 | 2.0 | 2.0 | 0.00 | 0.00 | 0.00 | 56 | 1016.0 |
| 20260905090434 | 59 | 8 | 3.0 | 3.0 | 0.00 | 0.00 | 0.00 | 54 | 1016.0 |
| 20260905085933 | 60 | 352 | 0.0 | 2.0 | 0.00 | 0.00 | 0.00 | 51 | 1016.0 |
| 20260905085432 | 60 | 90 | 0.0 | 2.0 | 0.00 | 0.00 | 0.00 | 52 | 1016.1 |
| 20260905084928 | 60 | 48 | 0.0 | 3.0 | 0.00 | 0.00 | 0.00 | 51 | 1015.7 |
| 20260905084428 | 59 | 102 | 4.0 | 4.0 | 0.00 | 0.00 | 0.00 | 55 | 1016.0 |
| 20260905083922 | 60 | 286 | 0.0 | 1.0 | 0.00 | 0.00 | 0.00 | 53 | 1016.0 |
| 20260905083418 | 60 | 82 | 0.0 | 3.0 | 0.00 | 0.00 | 0.00 | 53 | 1015.7 |
| 20260905082914 | 62 | 344 | 2.0 | 2.0 | 0.00 | 0.00 | 0.00 | 49 | 1015.9 |
| 20260905082409 | 62 | 81 | 3.0 | 3.0 | 0.00 | 0.00 | 0.00 | 49 | 1015.7 |